This demonstration page uses our WeatherBlox Daily Observations layout. Learn more.

41.55636, -103.73856

Hourly Observations for June 28, 2017

Temp ( °F °C ) Dew Point ( °F °C ) Humidity (%) Winds ( mph kmh ) Pressure ( in mb ) Visibility ( mi km ) Precip ( " mm )
12:53 am 00:53 Clear 58 14.4 50 10 75 75 W 6 9 29.7 1006 10 16.0934 0 0
1:53 am 01:53 Clear 57 13.9 50 10 78 78 NNW 9 15 29.7 1006 10 16.0934 0 0
2:53 am 02:53 Clear 56 13.3 49 9.4 77 77 WNW 7 11 29.73 1007 10 16.0934 0 0
3:53 am 03:53 Clear 54 12.2 48 8.9 80 80 WNW 7 11 29.73 1007 10 16.0934 0 0
4:53 am 04:53 Clear 53 11.7 47 8.3 80 80 NW 8 13 29.74 1007 10 16.0934 0 0
5:53 am 05:53 Sunny 53 11.7 47 8.3 80 80 NW 7 11 29.75 1008 10 16.0934 0 0
6:53 am 06:53 Sunny 58 14.4 48 8.9 70 70 WNW 5 7 29.77 1008 10 16.0934 0 0
7:53 am 07:53 Sunny 62 16.7 48 8.9 60 60 WNW 8 13 29.77 1008 10 16.0934 0 0
8:53 am 08:53 Sunny 69 20.6 50 10 51 51 W 10 17 29.76 1008 10 16.0934 0 0
9:53 am 09:53 Sunny 73 22.8 51 10.6 46 46 WNW 8 13 29.76 1008 10 16.0934 0 0
10:53 am 10:53 Sunny 76 24.4 50 10 40 40 WSW 6 9 29.74 1007 10 16.0934 0 0
11:53 am 11:53 Sunny 79 26.1 45 7.2 30 30 SSW 6 9 29.72 1007 10 16.0934 0 0
12:53 pm 12:53 Sunny 81 27.2 46 7.8 29 29 VRB 5 7 29.7 1006 10 16.0934 0 0
1:53 pm 13:53 Sunny 85 29.4 50 10 30 30 E 7 11 29.66 1005 10 16.0934 0 0
2:53 pm 14:53 Sunny 86 30 50 10 29 29 E 10 17 29.64 1004 10 16.0934 0 0
3:53 pm 15:53 Sunny 84 28.9 48 8.9 29 29 SE 12 19 29.63 1003 10 16.0934 0 0
4:53 pm 16:53 Sunny 86 30 46 7.8 25 25 VRB 6 9 29.61 1003 10 16.0934 0 0.0254
5:53 pm 17:53 Sunny 83 28.3 46 7.8 27 27 Calm 29.62 1003 10 16.0934 0 0
6:53 pm 18:53 Sunny 84 28.9 48 8.9 29 29 ESE 14 22 29.61 1003 10 16.0934 0 0
7:53 pm 19:53 Sunny 77 25 45 7.2 32 32 SE 10 17 29.62 1003 10 16.0934 0 0
8:53 pm 20:53 Clear 73 22.8 45 7.2 37 37 SE 9 15 29.6 1002 10 16.0934 0 0
9:53 pm 21:53 Clear 71 21.7 46 7.8 41 41 NNE 8 13 29.67 1005 10 16.0934 0 0
10:53 pm 22:53 Clear 70 21.1 51 10.6 51 51 N 6 9 29.69 1005 10 16.0934 0 0
11:53 pm 23:53 Clear 66 18.9 55 12.8 68 68 W 3 6 29.71 1006 10 16.0934 0 0

Powered by AerisWeather